Regional Weather Roundup
Issued by NWS

Home | Current Version | Previous Version | Graphics & Text | Print | Product List | Glossary Off
Versions: 1 2 3 4 5 6 7 8 9 10 11 12 13 14 15 16 17 18 19 20 21 22 23 24 25 26 27 28 29 30 31 32 33 34 35 36 37 38 39 40 41 42 43 44 45 46 47 48 49 50

000
ASUS43 KDMX 030807
RWRIA

WEATHER ROUNDUP FOR IOWA
NATIONAL WEATHER SERVICE DES MOINES IA
300 AM CDT MON AUG 03 2015

NOTE: "FAIR" INDICATES FEW OR NO CLOUDS BELOW 12,000 FEET WITH NO
SIGNIFICANT WEATHER AND/OR OBSTRUCTIONS TO VISIBILITY.

* - THESE STATIONS ARE NOT NWS STATIONS...THUS NOT UNDER NWS
QUALITY CONTROL.  THEY ALSO DO NOT REPORT WEATHER SUCH
AS PRECIPITATION OR FOG.

IAZ001>003-012>014-020>022-031>034-043>046-030900-
   NORTHWEST IOWA

CITY           SKY/WX    TMP DP  RH WIND       PRES   REMARKS
CARROLL *      PTCLDY    63  63 100 NW3       29.92S
CHEROKEE *     CLEAR     61  61 100 CALM      29.92F
DENISON *      MOCLDY    64  63  94 CALM      29.91S
LE MARS *      CLEAR     61  61 100 N5        29.93S
ORANGE CITY *  CLEAR     64  57  77 NE5       29.93F
SHELDON *      CLEAR     61  57  88 N9        29.93F
SPENCER        CLEAR     63  55  75 N10       29.93F
STORM LAKE *   CLEAR     63  59  88 N10       29.92F
$$

IAZ055>058-069>071-079>083-090>094-030900-
   SOUTHWEST IOWA

CITY           SKY/WX    TMP DP  RH WIND       PRES   REMARKS
ATLANTIC *     PTCLDY    68  64  88 NE5       29.92S
AUDUBON *      PTCLDY    64  61  88 CALM      29.94S
CLARINDA *     MOCLDY    70  70 100 NE5       29.91S
COUNCIL BLFS * CLEAR     70  66  88 NE12      29.92R
CRESTON *      CLEAR     70  64  83 N8        29.93R
HARLAN  *      CLEAR     66  66 100 NE5       29.95F
LAMONI         PTCLDY    67  62  84 NW5       29.89S
RED OAK *      MOCLDY    70  68  94 E6        29.91R
SHENANDOAH *   CLOUDY    73  68  83 E7        29.90R
$$

IAZ047>049-059>061-072>074-084-030900-
   CENTRAL IOWA

CITY           SKY/WX    TMP DP  RH WIND       PRES   REMARKS
AMES           CLEAR     66  59  78 N10       29.89R
ANKENY *       PTCLDY    68  61  77 CALM      29.90R
CHARITON *     PTCLDY    68  64  88 N9        29.89S
DES MOINES     PTCLDY    71  59  65 CALM      29.91R
GRINNELL*      PTCLDY    64  59  82 NW3       29.89R
KNOXVILLE *    MOCLDY    72  61  68 N7        29.88S
MARSHALLTOWN   PTCLDY    64  59  83 N8        29.88R
PELLA *        MOCLDY    68  66  94 N3        29.89F
PERRY *        MOCLDY    68  63  83 N3        29.91R
$$

IAZ004>006-015-016-023>025-035-036-030900-
   NORTH CENTRAL IOWA

CITY           SKY/WX    TMP DP  RH WIND       PRES   REMARKS
ALGONA *       CLEAR     61  57  88 VRB7      29.92F
CLARION *      CLEAR     61  57  88 CALM      29.90S
ESTHERVILLE    CLEAR     57  55  93 NW5       29.93F
FORT DODGE *   CLEAR     61  55  82 CALM      29.92S
MASON CITY     CLEAR     58  55  90 NW7       29.92R
FOREST CITY *  CLEAR     59  57  94 NW6       29.91S
IOWA FALLS *     N/A     61  57  88 W5        29.92R
$$

IAZ007>011-017>019-026>030-037>042-050>054-066-030900-
   NORTHEAST IOWA

CITY           SKY/WX    TMP DP  RH WIND       PRES   REMARKS
CEDAR RAPIDS   CLEAR     67  62  84 NW9       29.83S
CHARLES CITY * CLEAR     59  57  94 NW6       29.89S
CLINTON *      CLEAR     66  63  88 NW7       29.82S
DECORAH *      CLEAR     63  57  82 N5        29.85S
DUBUQUE        CLEAR     68  59  73 NW12      29.83R
MONTICELLO *   CLEAR     68  61  77 NW8G14    29.82S
OELWEIN *      CLEAR     61  59  94 NW6       29.88R
WATERLOO       CLEAR     63  57  81 NW7       29.87R
$$

IAZ064-065-067-068-078-030900-
   EAST CENTRAL IOWA

CITY           SKY/WX    TMP DP  RH WIND       PRES   REMARKS
DAVENPORT      CLEAR     67  64  90 NW6       29.81R
IOWA CITY      CLEAR     72  61  68 NW9       29.83S
MT. PLEASANT * PTCLDY    72  59  64 NW6       29.85S
MUSCATINE *    PTCLDY    70  63  78 W5        29.83R
QUAD CITIES    CLEAR     72  63  73 W5        29.80R
$$

IAZ062-063-075>077-085>089-095>099-030900-
   SOUTHEAST IOWA

CITY           SKY/WX    TMP DP  RH WIND       PRES   REMARKS
BURLINGTON     MOCLDY    70  62  76 NW8       29.83S
FAIRFIELD *    PTCLDY    66  63  88 NW8       29.86S
FORT MADISON * PTCLDY    68  61  77 NW10      29.85R
KEOKUK *       PTCLDY    72  59  64 NW6       29.83R
OSKALOOSA *    MOCLDY    64  63  94 NW3       29.88S
CENTERVILLE *  CLEAR     66  63  88 NW6       29.90R
OTTUMWA        PTCLDY    66  64  93 NW8       29.85F
WASHINGTON *   MOCLDY    66  64  94 W7        29.86S
$$

ABBREVIATIONS USED IN REMARKS
   TC - TEMPERATURES IN CELSIUS
  WCI - WIND CHILL INDEX
   HX - HEAT INDEX
  VSB - VISIBILITY
$$




USA.gov is the U.S. government's official web portal to all federal, state and local government web resources and services.